This demonstration page uses our WeatherBlox Daily Observations layout. Learn more.

Left ArrowRight Arrow

Hourly Observations for July 9, 2018

Temp ( °F °C ) Dew Point ( °F °C ) Humidity (%) Winds ( mph kmh ) Pressure ( in mb ) Visibility ( mi km ) Precip ( " mm )
12:17 am 00:17 Clear 70 21 68 20 94 94 SSE 3 6 30.21 1023 10 16.0934 N/A
12:36 am 00:36 Clear 68 20 68 20 100 100 N N/A 30.21 1023 10 16.0934 N/A
12:56 am 00:56 Clear 66 19 66 19 100 100 SE 3 6 30.21 1023 10 16.0934 N/A
1:17 am 01:17 Clear 66 19 66 19 100 100 N N/A 30.21 1023 10 16.0934 N/A
1:36 am 01:36 Clear 66 19 66 19 100 100 N N/A 30.21 1023 10 16.0934 N/A
1:57 am 01:57 Clear 68 20 68 20 100 100 SSE 5 7 30.21 1023 10 16.0934 N/A
2:17 am 02:17 Clear 68 20 68 20 100 100 SSE 5 7 30.21 1023 10 16.0934 N/A
2:36 am 02:36 Clear 68 20 68 20 100 100 N N/A 30.21 1023 10 16.0934 N/A
2:57 am 02:57 Clear 66 19 66 19 100 100 N N/A 30.21 1023 10 16.0934 N/A
3:16 am 03:16 Clear 66 19 66 19 100 100 N N/A 30.21 1023 10 16.0934 N/A
3:37 am 03:37 Partly Cloudy 64 18 64 18 100 100 N N/A 30.24 1024 10 16.0934 N/A
3:57 am 03:57 Partly Cloudy 64 18 64 18 100 100 N N/A 30.21 1023 10 16.0934 N/A
4:16 am 04:16 Partly Cloudy 64 18 64 18 100 100 N N/A 30.21 1023 10 16.0934 N/A
4:37 am 04:37 Partly Cloudy 64 18 64 18 100 100 N N/A 30.21 1023 10 16.0934 N/A
4:56 am 04:56 Clear 64 18 64 18 100 100 N N/A 30.21 1023 10 16.0934 N/A
5:16 am 05:16 Clear 64 18 64 18 100 100 SSE 3 6 30.21 1023 10 16.0934 N/A
5:37 am 05:37 Clear 64 18 64 18 100 100 N N/A 30.21 1023 10 16.0934 N/A
5:56 am 05:56 Clear 64 18 64 18 100 100 N N/A 30.21 1023 10 16.0934 N/A
6:16 am 06:16 Clear 63 17 63 17 100 100 N N/A 30.24 1024 10 16.0934 N/A
6:37 am 06:37 Sunny 63 17 63 17 100 100 N N/A 30.24 1024 10 16.0934 N/A
6:56 am 06:56 Partly Cloudy 63 17 63 17 100 100 N N/A 30.24 1024 10 16.0934 N/A
7:17 am 07:17 Partly Cloudy 64 18 64 18 100 100 N N/A 30.24 1024 10 16.0934 N/A
7:36 am 07:36 Partly Cloudy 66 19 66 19 100 100 N N/A 30.24 1024 10 16.0934 N/A
7:56 am 07:56 Sunny 68 20 68 20 100 100 N N/A 30.24 1024 10 16.0934 N/A
8:17 am 08:17 Sunny 72 22 70 21 94 94 N N/A 30.24 1024 10 16.0934 N/A
8:36 am 08:36 Sunny 73 23 72 22 94 94 S 3 6 30.24 1024 10 16.0934 N/A
8:57 am 08:57 Sunny 73 23 72 22 94 94 S 3 6 30.24 1024 10 16.0934 N/A
9:17 am 09:17 Sunny 77 25 73 23 89 89 N N/A 30.21 1023 10 16.0934 N/A
9:36 am 09:36 Sunny 77 25 73 23 89 89 N N/A 30.21 1023 10 16.0934 N/A
9:57 am 09:57 Sunny 79 26 73 23 84 84 N N/A 30.21 1023 10 16.0934 N/A
10:16 am 10:16 Sunny 81 27 73 23 79 79 W 5 7 30.21 1023 10 16.0934 N/A
10:37 am 10:37 Sunny 82 28 73 23 74 74 N N/A 30.21 1023 10 16.0934 N/A
10:57 am 10:57 Sunny 84 29 75 24 74 74 W 6 9 30.21 1023 10 16.0934 N/A
11:16 am 11:16 Sunny 84 29 75 24 74 74 W 8 13 30.21 1023 10 16.0934 N/A
11:37 am 11:37 Partly Cloudy 86 30 75 24 70 70 WNW 6 9 30.21 1023 10 16.0934 N/A
11:56 am 11:56 Partly Cloudy 86 30 73 23 66 66 W 8 13 30.21 1023 10 16.0934 N/A
12:16 pm 12:16 Sunny 86 30 73 23 66 66 WSW 8 13 30.18 1022 10 16.0934 N/A
12:37 pm 12:37 Sunny 86 30 73 23 66 66 WNW 7 11 30.18 1022 10 16.0934 N/A
12:56 pm 12:56 Partly Cloudy 86 30 73 23 66 66 WNW 5 7 30.18 1022 10 16.0934 N/A
1:17 pm 13:17 Partly Cloudy 86 30 72 22 62 62 W 7 11 30.18 1022 10 16.0934 N/A
1:37 pm 13:37 Sunny 88 31 73 23 62 62 NW 8 13 30.18 1022 10 16.0934 N/A
1:56 pm 13:56 Sunny 88 31 73 23 62 62 WNW 7 11 30.18 1022 10 16.0934 N/A
2:17 pm 14:17 Sunny 88 31 72 22 59 59 NNW 5 7 30.18 1022 10 16.0934 N/A
2:36 pm 14:36 Sunny 90 32 73 23 59 59 WNW 9 15 30.15 1021 10 16.0934 N/A
2:57 pm 14:57 Sunny 88 31 73 23 62 62 NNW 6 9 30.15 1021 10 16.0934 N/A
3:17 pm 15:17 Sunny 90 32 73 23 59 59 WNW 8 13 30.15 1021 10 16.0934 N/A
3:36 pm 15:36 Partly Cloudy 90 32 73 23 59 59 WNW 7 11 30.15 1021 10 16.0934 N/A
3:57 pm 15:57 Partly Cloudy 90 32 73 23 59 59 NW 9 15 30.15 1021 10 16.0934 N/A
4:16 pm 16:16 Mostly Cloudy 86 30 72 22 62 62 WNW 6 9 30.15 1021 10 16.0934 N/A
4:36 pm 16:36 Cloudy 88 31 73 23 62 62 NW 7 11 30.15 1021 10 16.0934 N/A
4:57 pm 16:57 Mostly Cloudy 88 31 73 23 62 62 NW 8 13 30.15 1021 10 16.0934 N/A
5:16 pm 17:16 Partly Cloudy 90 32 73 23 59 59 WNW 9 15 30.15 1021 10 16.0934 N/A
5:36 pm 17:36 Partly Cloudy 88 31 73 23 62 62 W 8 13 30.15 1021 10 16.0934 N/A
5:57 pm 17:57 Sunny 88 31 73 23 62 62 WNW 9 15 30.15 1021 10 16.0934 N/A
6:16 pm 18:16 Sunny 88 31 72 22 59 59 WNW 8 13 30.15 1021 10 16.0934 N/A
6:37 pm 18:37 Sunny 88 31 72 22 59 59 W 8 13 30.15 1021 10 16.0934 N/A
6:56 pm 18:56 Sunny 88 31 72 22 59 59 NW 7 11 30.15 1021 10 16.0934 N/A
7:16 pm 19:16 Sunny 88 31 72 22 59 59 WNW 7 11 30.15 1021 10 16.0934 N/A
7:37 pm 19:37 Sunny 86 30 72 22 62 62 WNW 6 9 30.15 1021 10 16.0934 N/A
7:56 pm 19:56 Sunny 86 30 72 22 62 62 WNW 6 9 30.15 1021 10 16.0934 N/A
8:16 pm 20:16 Sunny 84 29 73 23 70 70 WNW 5 7 30.12 1020 10 16.0934 N/A
8:37 pm 20:37 Sunny 82 28 73 23 74 74 N N/A 30.12 1020 10 16.0934 N/A
8:56 pm 20:56 Sunny 82 28 73 23 74 74 NW 3 6 30.15 1021 10 16.0934 N/A
9:17 pm 21:17 Clear 79 26 72 22 79 79 NNW 5 7 30.12 1020 10 16.0934 N/A
9:36 pm 21:36 Clear 79 26 72 22 79 79 N N/A 30.12 1020 10 16.0934 N/A
9:57 pm 21:57 Clear 73 23 73 23 100 100 W 3 6 30.12 1020 10 16.0934 N/A
10:17 pm 22:17 Clear 73 23 72 22 94 94 N N/A 30.15 1021 10 16.0934 N/A
10:36 pm 22:36 Clear 72 22 72 22 100 100 N N/A 30.18 1022 10 16.0934 N/A
10:57 pm 22:57 Clear 72 22 72 22 100 100 SSE 3 6 30.18 1022 10 16.0934 N/A
11:16 pm 23:16 Clear 72 22 72 22 100 100 N N/A 30.18 1022 10 16.0934 N/A
11:37 pm 23:37 Clear 72 22 72 22 100 100 N N/A 30.18 1022 10 16.0934 N/A
11:56 pm 23:56 Clear 72 22 70 21 94 94 N N/A 30.18 1022 10 16.0934 N/A

Powered by AerisWeather